1497733200.76,5914,15.31,73698.8,-0.45,-1.17,-1.21,0,*5D
1497733201.95,5915,15.31,73698.8,-0.45,-1.21,-1.21,0,*59
1497733203.14,5916,15.31,73690.8,-0.45,-1.21,-1.17,0,*5F
1497733204.36,5917,15.31,73692.8,-0.47,-1.17,-1.21,0,*5C
1497733205.55,5918,15.31,73698.0,-0.45,-1.17,-1.21,0,*51
1497733206.74,5919,15.31,73690.8,-0.45,-1.17,-1.21,0,*50
1497733207.96,5920,15.31,73690.5,-0.47,-1.21,-1.21,0,*5D
1497733209.15,5921,15.31,73690.8,-0.45,-1.17,-1.21,0,*5B
1497733210.36,5922,15.31,73690.0,-0.47,-1.17,-1.17,0,*5F
1497733211.55,5923,15.31,73692.8,-0.45,-1.17,-1.17,0,*5C
1497733212.77,5924,15.31,73688.8,-0.47,-1.17,-1.21,0,*5C
1497733213.96,5925,15.31,73690.5,-0.45,-1.17,-1.21,0,*5F
1497733215.15,5926,15.31,73686.0,-0.45,-1.21,-1.17,0,*5C
1497733216.34,5927,15.31,73686.8,-0.45,-1.17,-1.17,0,*58
1497733217.58,5928,15.31,73686.0,-0.43,-1.13,-1.17,0,*55
1497733218.79,5929,15.31,73688.8,-0.47,-1.21,-1.21,0,*54
1497733219.98,5930,15.31,73682.3,-0.45,-1.17,-1.17,0,*5E
1497733221.17,5931,15.31,73682.0,-0.45,-1.17,-1.17,0,*5F
1497733222.36,5932,15.31,73682.5,-0.45,-1.17,-1.17,0,*5C
1497733223.55,5933,15.31,73674.5,-0.45,-1.17,-1.17,0,*5D
1497733224.74,5934,15.31,73678.8,-0.45,-1.17,-1.17,0,*5A
1497733225.93,5935,15.31,73682.0,-0.45,-1.17,-1.17,0,*5B
1497733227.19,5936,15.31,73684.8,-0.43,-1.05,-1.13,0,*59
1497733228.44,5937,15.31,73684.0,-0.43,-1.13,-1.13,0,*5F
1497733229.63,5938,15.31,73690.5,-0.45,-1.17,-1.17,0,*56
1497733230.86,5939,15.31,73672.5,-0.43,-1.13,-1.17,0,*55
1497733232.1,5940,15.31,73682.0,-0.43,-1.17,-1.13,0,*5B
1497733233.29,5941,15.31,73674.8,-0.45,-1.17,-1.21,0,*5D
1497733234.54,5942,15.31,73678.8,-0.43,-1.13,-1.13,0,*5D
1497733235.76,5943,15.31,73676.3,-0.43,-1.17,-1.17,0,*5C
1497733236.99,5944,15.31,73680.8,-0.43,-1.17,-1.13,0,*5F
1497733238.24,5945,15.31,73674.8,-0.39,-1.13,-1.13,0,*57
1497733239.46,5946,15.31,73682.0,-0.43,-1.17,-1.17,0,*59
1497733240.69,5947,15.31,73678.8,-0.43,-1.17,-1.13,0,*5C
1497733241.92,5948,15.31,73678.8,-0.43,-1.13,-1.17,0,*53
1497733243.18,5949,15.31,73668.5,-0.43,-1.13,-1.13,0,*56
1497733244.39,5950,15.31,73672.8,-0.43,-1.17,-1.17,0,*5E
1497733245.62,5951,15.31,73680.0,-0.39,-1.09,-1.17,0,*5D
1497733246.88,5952,15.31,73676.0,-0.39,-1.09,-1.09,0,*51
1497733248.09,5953,15.31,73676.8,-0.43,-1.17,-1.17,0,*5D
1497733249.32,5954,15.31,73682.8,-0.43,-1.13,-1.17,0,*5E
1497733250.54,5955,15.31,73684.3,-0.43,-1.17,-1.17,0,*5B
1497733251.75,5956,15.31,73682.0,-0.43,-1.17,-1.17,0,*58
1497733252.96,5957,15.31,73682.0,-0.43,-1.17,-1.17,0,*59
1497733254.22,5958,15.31,73684.8,-0.43,-1.13,-1.09,0,*5D
1497733255.45,5959,15.31,73684.8,-0.43,-1.13,-1.17,0,*53
1497733256.67,5960,15.31,73690.0,-0.43,-1.17,-1.17,0,*5D
1497733257.88,5961,15.31,73688.5,-0.43,-1.17,-1.17,0,*5C
1497733259.09,5962,15.31,73692.8,-0.43,-1.17,-1.17,0,*5F
1497733260.31,5963,15.31,73696.0,-0.43,-1.17,-1.17,0,*5E
1497733261.56,5964,15.31,73692.3,-0.39,-1.09,-1.13,0,*5F
1497733262.79,5965,15.31,73684.0,-0.43,-1.13,-1.17,0,*5C
1497733264.0,5966,15.31,73684.3,-0.43,-1.17,-1.17,0,*5B
1497733265.22,5967,15.31,73692.3,-0.43,-1.17,-1.17,0,*5A
1497733266.43,5968,15.31,73686.8,-0.43,-1.17,-1.17,0,*55
1497733267.64,5969,15.31,73696.8,-0.43,-1.17,-1.17,0,*54
1497733268.86,5970,15.31,73692.3,-0.43,-1.17,-1.17,0,*5C
1497733270.07,5971,15.31,73692.0,-0.43,-1.17,-1.17,0,*5D
1497733271.28,5972,15.31,73692.8,-0.43,-1.17,-1.17,0,*5E
1497733272.48,5973,15.31,73680.5,-0.45,-1.21,-1.21,0,*59
1497733273.69,5974,15.31,73684.3,-0.43,-1.17,-1.17,0,*58
1497733274.9,5975,15.31,73682.0,-0.43,-1.17,-1.17,0,*59
1497733276.09,5976,15.31,73680.3,-0.45,-1.21,-1.21,0,*5C
1497733277.35,5977,15.31,73686.0,-0.39,-1.13,-1.13,0,*56
1497733278.56,5978,15.31,73680.3,-0.43,-1.17,-1.17,0,*54
1497733279.8,5979,15.31,73678.3,-0.43,-1.17,-1.13,0,*51
1497733281.05,5980,15.31,73680.0,-0.39,-1.13,-1.13,0,*5E
1497733282.28,5981,15.31,73682.3,-0.43,-1.17,-1.13,0,*56
1497733283.52,5982,15.31,73682.3,-0.43,-1.17,-1.13,0,*55
1497733284.73,5983,15.31,73680.5,-0.43,-1.17,-1.17,0,*50
1497733285.94,5984,15.31,73680.5,-0.43,-1.17,-1.17,0,*57
1497733287.2,5985,15.31,73680.8,-0.39,-1.13,-1.13,0,*5B
1497733288.43,5986,15.31,73682.5,-0.43,-1.17,-1.13,0,*51
1497733289.65,5987,15.31,73684.0,-0.43,-1.17,-1.17,0,*54
1497733290.86,5988,15.31,73688.0,-0.43,-1.17,-1.17,0,*5B
1497733292.11,5989,15.31,73686.5,-0.39,-1.09,-1.09,0,*57
1497733293.33,5990,15.31,73676.8,-0.43,-1.17,-1.17,0,*52
1497733294.58,5991,15.31,73676.8,-0.43,-1.13,-1.13,0,*53
1497733295.79,5992,15.31,73674.5,-0.43,-1.17,-1.17,0,*50
1497733297.05,5993,15.31,73674.8,-0.43,-1.13,-1.13,0,*51
1497733298.26,5994,15.31,73676.5,-0.43,-1.17,-1.17,0,*56
1497733299.52,5995,15.31,73672.8,-0.39,-1.13,-1.09,0,*51
1497733300.73,5996,15.31,73682.0,-0.43,-1.17,-1.17,0,*54
1497733301.99,5997,15.31,73672.3,-0.39,-1.13,-1.09,0,*53
1497733303.24,5998,15.31,73678.3,-0.43,-1.13,-1.13,0,*5A
1497733304.48,5999,15.31,73672.8,-0.43,-1.13,-1.17,0,*5F
1497733305.69,6000,15.31,73676.3,-0.43,-1.17,-1.17,0,*51
1497733306.94,6001,15.31,73672.8,-0.39,-1.09,-1.09,0,*5D
1497733308.2,6002,15.31,73672.0,-0.39,-1.09,-1.09,0,*5E
1497733309.43,6003,15.31,73670.0,-0.43,-1.17,-1.13,0,*56
1497733310.68,6004,15.31,73664.0,-0.39,-1.09,-1.13,0,*53
1497733311.92,6005,15.31,73668.0,-0.43,-1.17,-1.13,0,*50
1497733313.13,6006,15.31,73656.5,-0.43,-1.17,-1.17,0,*57
1497733314.34,6007,15.31,73644.5,-0.43,-1.17,-1.17,0,*56
1497733315.56,6008,15.31,73660.3,-0.43,-1.17,-1.17,0,*59
1497733316.79,6009,15.31,73668.5,-0.43,-1.17,-1.13,0,*5C
1497733318.0,6010,15.31,73664.5,-0.43,-1.17,-1.17,0,*50
1497733319.22,6011,15.31,73670.0,-0.43,-1.17,-1.17,0,*51
1497733320.43,6012,15.31,73658.5,-0.43,-1.17,-1.17,0,*52
1497733321.66,6013,15.31,73666.5,-0.43,-1.13,-1.17,0,*57
1497733322.9,6014,15.31,73668.0,-0.43,-1.17,-1.13,0,*50
1497733324.15,6015,15.31,73666.8,-0.39,-1.09,-1.09,0,*58
1497733325.4,6016,15.31,73666.3,-0.43,-1.13,-1.13,0,*56
1497733326.64,6017,15.31,73668.5,-0.43,-1.13,-1.17,0,*53
1497733327.85,6018,15.31,73680.0,-0.43,-1.17,-1.17,0,*58
1497733329.06,6019,15.31,73682.3,-0.43,-1.17,-1.17,0,*59
1497733330.28,6020,15.31,73678.8,-0.43,-1.17,-1.17,0,*53
1497733331.49,6021,15.31,73680.0,-0.43,-1.17,-1.17,0,*52
1497733332.7,6022,15.31,73682.8,-0.43,-1.17,-1.17,0,*51
1497733333.96,6023,15.31,73686.0,-0.39,-1.13,-1.13,0,*5D
1497733335.21,6024,15.31,73688.3,-0.43,-1.13,-1.13,0,*57
1497733336.47,6025,15.31,73692.5,-0.39,-1.13,-1.13,0,*5B
1497733337.68,6026,15.31,73694.8,-0.43,-1.17,-1.17,0,*55
1497733338.93,6027,15.31,73690.8,-0.39,-1.09,-1.13,0,*52
1497733340.17,6028,15.31,73694.8,-0.43,-1.17,-1.13,0,*5F
1497733341.42,6029,15.31,73696.5,-0.39,-1.13,-1.09,0,*5C
1497733342.66,6030,15.31,73692.5,-0.43,-1.13,-1.17,0,*56
1497733343.89,6031,15.31,73692.5,-0.43,-1.13,-1.17,0,*57
1497733345.1,6032,15.31,73690.5,-0.43,-1.17,-1.17,0,*50
1497733346.36,6033,15.31,73694.5,-0.39,-1.09,-1.01,0,*54
1497733347.62,6034,15.31,73688.0,-0.39,-1.01,-1.01,0,*5B
1497733348.88,6035,15.31,73698.0,-0.43,-1.05,-1.05,0,*57
1497733350.14,6036,15.31,73692.0,-0.39,-1.09,-1.01,0,*51
1497733351.39,6037,15.31,73696.0,-0.39,-1.09,-1.01,0,*50
1497733352.65,6038,15.31,73692.0,-0.39,-1.09,-1.01,0,*5F
1497733353.91,6039,15.31,73690.8,-0.39,-1.01,-1.01,0,*56
1497733355.16,6040,15.31,73694.3,-0.39,-1.09,-1.01,0,*50
1497733356.39,6041,15.31,73684.3,-0.37,-1.01,-1.01,0,*57
1497733357.66,6042,15.31,73690.0,-0.43,-1.05,-1.05,0,*57
1497733358.91,6043,15.31,73692.3,-0.39,-1.09,-1.01,0,*53
1497733360.17,6044,15.31,73692.3,-0.43,-1.05,-1.05,0,*51
1497733361.43,6045,15.31,73692.8,-0.39,-1.01,-0.97,0,*63
1497733362.68,6046,15.31,73692.8,-0.39,-0.97,-1.01,0,*60
1497733363.93,6047,15.31,73690.5,-0.39,-0.97,-0.97,0,*5F
1497733365.16,6048,15.31,73688.8,-0.37,-1.01,-0.97,0,*60
1497733366.38,6049,15.31,73684.8,-0.37,-0.97,-0.97,0,*5F
1497733367.61,6050,15.31,73682.0,-0.37,-1.01,-0.97,0,*69
1497733368.84,6051,15.31,73684.5,-0.37,-0.97,-1.01,0,*68
1497733370.06,6052,15.31,73684.8,-0.37,-0.97,-0.97,0,*55
1497733371.29,6053,15.31,73678.3,-0.37,-0.97,-1.01,0,*6A
1497733372.51,6054,15.31,73686.8,-0.37,-0.97,-0.97,0,*53
1497733373.76,6055,15.31,73672.5,-0.35,-0.93,-0.93,0,*50
1497733375.0,6056,15.31,73678.0,-0.35,-0.93,-0.93,0,*53
1497733376.24,6057,15.31,73674.8,-0.35,-0.93,-0.97,0,*56
1497733377.49,6058,15.31,73674.0,-0.35,-0.93,-0.97,0,*59
1497733378.73,6059,15.31,73674.0,-0.35,-0.93,-0.93,0,*5C
1497733379.95,6060,15.31,73682.0,-0.37,-0.97,-0.97,0,*54
1497733381.17,6061,15.31,73674.0,-0.37,-0.89,-0.97,0,*5A
1497733382.4,6062,15.31,73674.8,-0.37,-0.97,-1.01,0,*68
1497733383.63,6063,15.31,73678.5,-0.37,-0.97,-0.89,0,*58
1497733384.85,6064,15.31,73678.0,-0.37,-1.01,-0.89,0,*61
1497733386.1,6065,15.31,73678.3,-0.35,-0.85,-0.85,0,*53
1497733387.34,6066,15.31,73676.5,-0.35,-0.93,-0.93,0,*50
1497733388.56,6067,15.31,73684.8,-0.37,-0.93,-0.97,0,*57
1497733389.81,6068,15.31,73674.3,-0.35,-0.93,-0.93,0,*5E
1497733391.05,6069,15.31,73684.3,-0.35,-0.97,-0.97,0,*5F
1497733392.28,6070,15.31,73676.0,-0.37,-0.97,-0.97,0,*55
1497733393.52,6071,15.31,73682.3,-0.35,-0.93,-0.97,0,*52
1497733394.77,6072,15.31,73680.0,-0.35,-0.97,-0.93,0,*51
1497733396.01,6073,15.31,73672.5,-0.35,-0.93,-0.93,0,*54
1497733397.26,6074,15.31,73676.3,-0.35,-0.93,-0.93,0,*53
1497733398.51,6075,15.31,73684.8,-0.35,-0.97,-0.93,0,*56
1497733399.75,6076,15.31,73686.3,-0.35,-0.93,-0.93,0,*51
1497733400.97,6077,15.31,73690.3,-0.33,-0.93,-0.97,0,*52
1497733402.19,6078,15.31,73690.3,-0.33,-0.93,-0.97,0,*5D
1497733403.41,6079,15.31,73694.3,-0.33,-0.93,-0.97,0,*5C
1497733404.64,6080,15.31,73692.8,-0.33,-0.97,-0.93,0,*5A
1497733405.88,6081,15.31,73692.8,-0.35,-0.93,-0.97,0,*5D
1497733407.13,6082,15.31,73694.8,-0.35,-0.93,-0.97,0,*5E
1497733408.35,6083,15.31,73698.3,-0.33,-0.97,-0.97,0,*5D
1497733409.57,6084,15.31,73696.8,-0.33,-0.93,-0.93,0,*5A
1497733410.79,6085,15.31,73698.3,-0.33,-0.93,-0.93,0,*5B
1497733412.04,6086,15.31,73698.0,-0.35,-0.93,-0.97,0,*5A
1497733413.26,6087,15.31,73698.3,-0.33,-0.97,-0.93,0,*5D
1497733414.49,6088,15.31,73698.3,-0.33,-0.97,-0.93,0,*52
1497733415.73,6089,15.31,73694.8,-0.31,-0.89,-0.93,0,*5E
1497733416.95,6090,15.31,73692.0,-0.33,-0.93,-0.93,0,*5F
1497733418.18,6091,15.31,73696.0,-0.33,-0.97,-0.93,0,*5A
1497733419.41,6092,15.31,73698.0,-0.33,-0.97,-0.97,0,*5D
1497733420.63,6093,15.31,73694.0,-0.33,-0.93,-0.97,0,*58
1497733421.85,6094,15.31,73694.3,-0.33,-0.97,-0.97,0,*5B
1497733423.08,6095,15.31,73700.3,-0.33,-0.97,-0.93,0,*5E
1497733424.3,6096,15.31,73698.3,-0.33,-0.93,-0.93,0,*59
1497733425.54,6097,15.31,73698.3,-0.31,-0.93,-0.89,0,*51
1497733426.77,6098,15.31,73692.0,-0.33,-0.97,-0.93,0,*53
1497733427.99,6099,15.31,73692.8,-0.33,-0.93,-0.93,0,*56
1497733429.21,6100,15.31,73694.3,-0.33,-0.93,-0.93,0,*57
1497733430.46,6101,15.31,73696.5,-0.31,-0.89,-0.89,0,*54
1497733431.68,6102,15.31,73688.8,-0.33,-0.93,-0.93,0,*55
1497733432.92,6103,15.31,73688.0,-0.31,-0.93,-0.93,0,*56
1497733434.14,6104,15.31,73696.0,-0.33,-0.93,-0.93,0,*53
1497733435.39,6105,15.31,73700.5,-0.31,-0.89,-0.89,0,*50
1497733436.61,6106,15.31,73692.3,-0.33,-0.93,-0.97,0,*55
1497733437.85,6107,15.31,73688.3,-0.31,-0.93,-0.93,0,*52
1497733439.07,6108,15.31,73688.3,-0.33,-0.93,-0.93,0,*5F
1497733440.29,6109,15.31,73690.3,-0.33,-0.93,-0.93,0,*5E
1497733441.53,6110,15.31,73692.5,-0.31,-0.89,-0.93,0,*5F
1497733442.78,6111,15.31,73694.5,-0.31,-0.93,-0.93,0,*55
1497733444.0,6112,15.31,73690.5,-0.31,-0.89,-0.81,0,*5E
1497733445.21,6113,15.31,73694.3,-0.33,-0.97,-0.81,0,*52
1497733446.43,6114,15.31,73690.3,-0.33,-0.93,-0.97,0,*56
1497733447.66,6115,15.31,73692.8,-0.31,-0.81,-0.93,0,*52
1497733448.9,6116,15.31,73690.8,-0.31,-0.89,-0.93,0,*59
1497733450.15,6117,15.31,73688.3,-0.31,-0.93,-0.89,0,*58
1497733451.39,6118,15.31,73690.8,-0.31,-0.93,-0.89,0,*57
1497733452.62,6119,15.31,73686.3,-0.33,-0.93,-1.05,0,*61
1497733453.85,6120,15.31,73686.3,-0.33,-0.97,-0.97,0,*55
1497733455.09,6121,15.31,73686.3,-0.31,-0.93,-0.93,0,*56
1497733456.31,6122,15.31,73684.5,-0.33,-0.97,-0.97,0,*57
1497733457.56,6123,15.31,73686.3,-0.31,-0.89,-0.93,0,*5F
1497733458.81,6124,15.31,73688.5,-0.31,-0.89,-0.93,0,*58
1497733460.03,6125,15.31,73690.0,-0.33,-0.97,-0.93,0,*54
1497733461.28,6126,15.31,73688.0,-0.31,-0.93,-0.93,0,*51
1497733462.5,6127,15.31,73688.5,-0.33,-0.93,-0.97,0,*56
1497733463.74,6128,15.31,73688.0,-0.31,-0.93,-0.93,0,*5F
1497733464.99,6129,15.31,73688.5,-0.31,-0.93,-1.01,0,*64
1497733466.22,6130,15.31,73684.5,-0.33,-0.97,-1.09,0,*62
1497733467.47,6131,15.31,73682.3,-0.31,-1.05,-0.93,0,*69
1497733468.74,6132,15.31,73690.5,-0.31,-1.01,-1.05,0,*50
1497733470.0,6133,15.31,73688.3,-0.31,-1.01,-1.05,0,*51
1497733471.24,6134,15.31,73682.8,-0.33,-1.05,-1.05,0,*50
1497733472.48,6135,15.31,73682.3,-0.33,-1.05,-1.05,0,*51
1497733473.72,6136,15.31,73672.8,-0.33,-1.09,-1.05,0,*5E
1497733474.98,6137,15.31,73672.5,-0.31,-1.01,-1.01,0,*51
1497733476.24,6138,15.31,73676.0,-0.31,-1.01,-1.05,0,*5A
1497733477.47,6139,15.31,73684.0,-0.33,-1.09,-1.09,0,*5D
1497733478.74,6140,15.31,73682.5,-0.31,-1.05,-1.05,0,*51
1497733480.0,6141,15.31,73678.3,-0.31,-1.05,-1.01,0,*54
1497733481.24,6142,15.31,73688.5,-0.33,-1.05,-1.09,0,*5D
1497733482.5,6143,15.31,73686.3,-0.31,-1.05,-1.01,0,*56
1497733483.73,6144,15.31,73678.5,-0.33,-1.09,-1.09,0,*57
1497733484.98,6145,15.31,73684.5,-0.33,-1.05,-1.05,0,*56
1497733486.24,6146,15.31,73684.8,-0.31,-1.01,-1.05,0,*53
1497733487.48,6147,15.31,73692.5,-0.33,-1.05,-1.05,0,*54
1497733488.75,6148,15.31,73678.8,-0.31,-1.05,-1.05,0,*59
1497733489.98,6149,15.31,73684.0,-0.33,-1.09,-1.09,0,*5A
1497733491.21,6150,15.31,73680.3,-0.33,-1.05,-1.09,0,*5E
1497733492.48,6151,15.31,73684.0,-0.31,-1.05,-1.05,0,*51
1497733493.74,6152,15.31,73684.0,-0.31,-1.01,-1.05,0,*56
1497733494.97,6153,15.31,73698.5,-0.33,-1.09,-1.09,0,*51
1497733496.21,6154,15.31,73708.3,-0.33,-1.09,-1.09,0,*56
1497733497.44,6155,15.31,73706.0,-0.33,-1.09,-1.09,0,*57
1497733498.67,6156,15.31,73686.5,-0.33,-1.09,-1.09,0,*54
1497733499.9,6157,15.31,73662.0,-0.33,-1.09,-1.09,0,*55
1497733501.13,6158,15.31,73658.3,-0.33,-1.09,-1.09,0,*5A
1497733502.37,6159,15.31,73650.8,-0.33,-1.09,-1.09,0,*5B
1497733503.6,6160,15.31,73654.0,-0.33,-1.09,-1.09,0,*51
1497733504.83,6161,15.31,73664.0,-0.33,-1.09,-1.13,0,*5B
1497733506.06,6162,15.31,73664.5,-0.33,-1.09,-1.09,0,*53
1497733507.29,6163,15.31,73674.5,-0.33,-1.09,-1.09,0,*52
1497733508.52,6164,15.31,73684.0,-0.33,-1.09,-1.13,0,*5E
1497733509.76,6165,15.31,73678.5,-0.35,-1.09,-1.21,0,*58
1497733511.01,6166,15.31,73682.0,-0.35,-1.09,-1.13,0,*5A
1497733512.24,6167,15.31,73676.5,-0.33,-1.09,-1.13,0,*5D
1497733513.47,6168,15.31,73668.5,-0.33,-1.09,-1.13,0,*52
1497733514.72,6169,15.31,73670.0,-0.35,-1.09,-1.09,0,*5E
1497733515.96,6170,15.31,73668.5,-0.33,-1.09,-1.09,0,*50
1497733517.2,6171,15.31,73670.3,-0.33,-1.05,-1.09,0,*5D
1497733518.46,6172,15.31,73676.0,-0.35,-1.05,-1.09,0,*58
1497733519.72,6173,15.31,73664.3,-0.35,-1.05,-1.09,0,*59
1497733520.95,6174,15.31,73646.3,-0.37,-1.09,-1.05,0,*5C
1497733522.19,6175,15.31,73672.3,-0.33,-1.05,-1.09,0,*59
1497733523.45,6176,15.31,73682.0,-0.35,-1.09,-1.09,0,*50
1497733524.7,6177,15.31,73668.5,-0.35,-1.09,-1.09,0,*51
1497733525.96,6178,15.31,73664.5,-0.35,-1.09,-1.09,0,*5E
1497733527.21,6179,15.31,73658.3,-0.35,-1.09,-1.09,0,*5F
1497733528.47,6180,15.31,73696.3,-0.35,-1.09,-1.09,0,*59
1497733529.7,6181,15.31,73674.5,-0.37,-1.13,-1.13,0,*5A
1497733530.95,6182,15.31,73662.8,-0.35,-1.09,-1.09,0,*5B
1497733532.21,6183,15.31,73682.3,-0.35,-1.09,-1.09,0,*5A
1497733533.46,6184,15.31,73676.0,-0.35,-1.09,-1.09,0,*5D
1497733534.72,6185,15.31,73670.3,-0.35,-1.09,-1.09,0,*5C
1497733535.97,6186,15.31,73678.3,-0.35,-1.09,-1.09,0,*5F
1497733537.23,6187,15.31,73678.5,-0.35,-1.05,-1.09,0,*52
1497733538.49,6188,15.31,73672.5,-0.35,-1.09,-1.09,0,*51
1497733539.74,6189,15.31,73682.0,-0.35,-1.09,-1.09,0,*50
1497733540.97,6190,15.31,73680.0,-0.37,-1.13,-1.13,0,*5A
1497733542.23,6191,15.31,73686.5,-0.35,-1.09,-1.09,0,*59
1497733543.49,6192,15.31,73684.5,-0.35,-1.05,-1.09,0,*56
1497733544.75,6193,15.31,73688.3,-0.35,-1.09,-1.09,0,*5B
1497733546.0,6194,15.31,73692.0,-0.35,-1.09,-1.09,0,*5C
1497733547.26,6195,15.31,73690.8,-0.35,-1.09,-1.09,0,*5D
1497733548.52,6196,15.31,73686.8,-0.35,-1.05,-1.09,0,*52
1497733549.75,6197,15.31,73688.0,-0.37,-1.13,-1.09,0,*56
1497733551.0,6198,15.31,73694.8,-0.35,-1.09,-1.09,0,*50
1497733552.26,6199,15.31,73688.5,-0.35,-1.09,-1.09,0,*51
1497733553.52,6200,15.31,73688.0,-0.35,-1.09,-1.09,0,*52
1497733554.78,6201,15.31,73690.5,-0.35,-1.05,-1.09,0,*5F
1497733556.03,6202,15.31,73694.8,-0.35,-1.09,-1.09,0,*50
1497733557.29,6203,15.31,73692.3,-0.35,-1.09,-1.09,0,*51
1497733558.55,6204,15.31,73692.8,-0.35,-1.05,-1.09,0,*5A
1497733559.81,6205,15.31,73698.0,-0.35,-1.09,-1.05,0,*5B
1497733561.06,6206,15.31,73698.0,-0.35,-1.09,-1.09,0,*54
1497733562.3,6207,15.31,73698.0,-0.37,-1.13,-1.09,0,*5C
1497733563.55,6208,15.31,73698.5,-0.35,-1.09,-1.05,0,*56
1497733564.81,6209,15.31,73702.8,-0.35,-1.09,-1.09,0,*5B
1497733566.07,6210,15.31,73698.3,-0.35,-1.09,-1.05,0,*5F
1497733567.32,6211,15.31,73696.8,-0.35,-1.09,-1.09,0,*52
1497733568.59,6212,15.31,73694.0,-0.35,-1.05,-1.05,0,*51
1497733569.85,6213,15.31,73700.5,-0.35,-1.09,-1.09,0,*50
1497733571.08,6214,15.31,73710.8,-0.37,-1.13,-1.09,0,*5E
1497733572.33,6215,15.31,73704.3,-0.35,-1.09,-1.09,0,*56
1497733573.59,6216,15.31,73700.8,-0.35,-1.09,-1.09,0,*55
1497733574.85,6217,15.31,73696.8,-0.35,-1.05,-1.09,0,*58
1497733576.12,6218,15.31,73698.5,-0.35,-1.05,-1.05,0,*5B
1497733577.38,6219,15.31,73706.0,-0.35,-1.05,-1.05,0,*5A
1497733578.64,6220,15.31,73688.8,-0.35,-1.09,-1.05,0,*5C
1497733579.9,6221,15.31,73696.3,-0.35,-1.09,-1.09,0,*51
1497733581.15,6222,15.31,73692.8,-0.35,-1.09,-1.09,0,*52
1497733582.41,6223,15.31,73694.8,-0.35,-1.09,-1.09,0,*53
1497733583.67,6224,15.31,73684.0,-0.35,-1.09,-1.05,0,*58
1497733584.92,6225,15.31,73690.3,-0.35,-1.09,-1.09,0,*55
1497733586.16,6226,15.31,73690.3,-0.33,-0.97,-1.05,0,*6A
1497733587.4,6227,15.31,73682.3,-0.33,-1.05,-1.05,0,*51
1497733588.67,6228,15.31,73678.8,-0.35,-1.05,-1.05,0,*58
1497733589.93,6229,15.31,73674.0,-0.35,-1.05,-1.05,0,*59
1497733591.2,6230,15.31,73672.8,-0.35,-1.05,-1.05,0,*51
1497733592.46,6231,15.31,73672.8,-0.35,-1.05,-1.09,0,*5C
1497733593.72,6232,15.31,73676.3,-0.35,-1.09,-1.05,0,*5F
1497733594.95,6233,15.31,73670.3,-0.37,-1.13,-1.13,0,*50
1497733596.18,6234,15.31,73666.0,-0.33,-1.09,-1.09,0,*53
1497733597.42,6235,15.31,73664.5,-0.33,-1.05,-1.09,0,*5E
1497733598.65,6236,15.31,73654.8,-0.33,-1.09,-1.05,0,*5D
1497733599.91,6237,15.31,73656.8,-0.35,-1.13,-1.09,0,*5D
1497733601.17,6238,15.31,73640.0,-0.35,-1.09,-1.09,0,*59
1497733602.42,6239,15.31,73634.3,-0.35,-1.09,-1.09,0,*58
1497733603.68,6240,15.31,73632.0,-0.35,-1.05,-1.09,0,*5A
1497733604.91,6241,15.31,73628.0,-0.37,-1.13,-1.13,0,*55
1497733606.17,6242,15.31,73652.0,-0.35,-1.09,-1.09,0,*54
1497733607.42,6243,15.31,73650.3,-0.35,-1.09,-1.09,0,*55
1497733608.68,6244,15.31,73652.8,-0.35,-1.09,-1.09,0,*52
1497733609.93,6245,15.31,73666.3,-0.35,-1.09,-1.13,0,*58
1497733611.19,6246,15.31,73670.8,-0.35,-1.09,-1.13,0,*5B
1497733612.4,6247,15.31,73668.8,-0.37,-1.13,-1.17,0,*57
1497733613.58,6248,15.31,73672.3,-0.37,-1.17,-1.17,0,*5C
1497733614.77,6249,15.31,73660.3,-0.37,-1.17,-1.17,0,*5D
1497733615.96,6250,15.31,73666.0,-0.37,-1.17,-1.25,0,*54
1497733617.15,6251,15.31,73658.3,-0.37,-1.17,-1.17,0,*54
1497733618.41,6252,15.31,73654.0,-0.35,-1.13,-1.13,0,*55
1497733619.64,6253,15.31,73668.8,-0.35,-1.13,-1.25,0,*51
1497733620.88,6254,15.31,73672.8,-0.35,-1.13,-1.21,0,*52
1497733622.06,6255,15.31,73672.8,-0.37,-1.25,-1.25,0,*50
1497733623.3,6256,15.31,73668.0,-0.35,-1.13,-1.21,0,*50
1497733624.48,6257,15.31,73686.8,-0.37,-1.25,-1.25,0,*52
1497733625.71,6258,15.31,73672.8,-0.35,-1.21,-1.13,0,*5E
1497733626.9,6259,15.31,73676.8,-0.37,-1.17,-1.25,0,*5D
1497733628.14,6260,15.31,73672.5,-0.35,-1.13,-1.21,0,*55
1497733629.37,6261,15.31,73672.0,-0.35,-1.21,-1.13,0,*54
1497733630.56,6262,15.31,73676.5,-0.37,-1.17,-1.25,0,*55
1497733631.75,6263,15.31,73672.0,-0.37,-1.17,-1.17,0,*55
1497733632.94,6264,15.31,73674.0,-0.37,-1.17,-1.17,0,*52
1497733634.12,6265,15.31,73672.8,-0.37,-1.25,-1.25,0,*53
1497733635.31,6266,15.31,73672.8,-0.37,-1.17,-1.17,0,*50
1497733636.52,6267,15.31,73668.8,-0.35,-1.21,-1.21,0,*53
1497733637.76,6268,15.31,73664.8,-0.35,-1.21,-1.13,0,*5D
1497733638.94,6269,15.31,73654.0,-0.37,-1.17,-1.25,0,*5E
1497733640.13,6270,15.31,73664.5,-0.37,-1.17,-1.17,0,*57
1497733641.32,6271,15.31,73676.3,-0.37,-1.17,-1.25,0,*57
1497733642.5,6272,15.31,73668.8,-0.37,-1.17,-1.25,0,*54
1497733643.71,6273,15.31,73670.0,-0.39,-1.25,-1.25,0,*5A
1497733644.92,6274,15.31,73668.3,-0.39,-1.25,-1.25,0,*5D
1497733646.1,6275,15.31,73668.5,-0.37,-1.17,-1.17,0,*52
1497733647.34,6276,15.31,73676.0,-0.35,-1.13,-1.21,0,*52
1497733648.53,6277,15.31,73674.5,-0.37,-1.25,-1.17,0,*51
1497733649.71,6278,15.31,73672.8,-0.37,-1.25,-1.17,0,*5E
1497733650.89,6279,15.31,73676.8,-0.37,-1.25,-1.25,0,*5E
1497733652.08,6280,15.31,73674.8,-0.37,-1.17,-1.25,0,*59
1497733653.26,6281,15.31,73672.8,-0.37,-1.17,-1.25,0,*58
1497733654.44,6282,15.31,73676.5,-0.37,-1.25,-1.25,0,*5A
1497733655.63,6283,15.31,73678.5,-0.37,-1.25,-1.17,0,*5A
1497733656.84,6284,15.25,73670.3,-0.39,-1.17,-1.25,0,*53
1497733658.05,6285,15.31,73674.8,-0.43,-1.29,-1.29,0,*5E
1497733659.26,6286,15.31,73678.0,-0.39,-1.25,-1.17,0,*51
1497733660.47,6287,15.31,73686.8,-0.39,-1.17,-1.29,0,*5C
1497733661.69,6288,15.31,73668.8,-0.39,-1.17,-1.25,0,*5F
1497733662.9,6289,15.31,73670.0,-0.39,-1.17,-1.25,0,*5E
1497733664.11,6290,15.31,73670.0,-0.39,-1.25,-1.17,0,*56
1497733665.32,6291,15.31,73664.3,-0.39,-1.17,-1.17,0,*56
1497733666.53,6292,15.31,73672.5,-0.39,-1.25,-1.17,0,*54
1497733667.75,6293,15.31,73668.0,-0.39,-1.17,-1.17,0,*54
1497733668.96,6294,15.31,73676.3,-0.43,-1.21,-1.29,0,*56
1497733670.17,6295,15.31,73676.0,-0.39,-1.17,-1.17,0,*52
1497733671.39,6296,15.31,73678.3,-0.39,-1.17,-1.17,0,*51
1497733672.6,6297,15.31,73674.5,-0.39,-1.17,-1.17,0,*50
1497733673.81,6298,15.31,73686.3,-0.39,-1.17,-1.25,0,*5E
1497733675.03,6299,15.31,73678.8,-0.43,-1.21,-1.21,0,*53
1497733676.24,6300,15.31,73672.8,-0.43,-1.21,-1.21,0,*52
1497733677.46,6301,15.31,73678.5,-0.43,-1.21,-1.21,0,*53
1497733678.67,6302,15.31,73676.5,-0.43,-1.21,-1.21,0,*50
1497733679.89,6303,15.31,73680.3,-0.39,-1.17,-1.17,0,*5C
1497733681.1,6304,15.31,73682.0,-0.39,-1.17,-1.17,0,*5B
1497733682.32,6305,15.31,73678.0,-0.39,-1.17,-1.17,0,*5A
1497733683.53,6306,15.31,73680.5,-0.39,-1.17,-1.17,0,*59
1497733684.75,6307,15.31,73706.5,-0.39,-1.17,-1.17,0,*58
1497733685.96,6308,15.31,73696.5,-0.39,-1.17,-1.17,0,*57
1497733687.22,6309,15.31,73674.0,-0.43,-1.13,-1.13,0,*5B
1497733688.48,6310,15.31,73656.8,-0.39,-1.13,-1.09,0,*55
1497733689.73,6311,15.31,73688.3,-0.39,-1.13,-1.09,0,*54
1497733690.99,6312,15.31,73684.8,-0.39,-1.13,-1.13,0,*5C
1497733692.22,6313,15.31,73668.8,-0.43,-1.13,-1.17,0,*54
1497733693.48,6314,15.31,73674.0,-0.39,-1.13,-1.09,0,*51
1497733694.73,6315,15.31,73674.0,-0.39,-1.13,-1.13,0,*5B
1497733695.99,6316,15.31,73672.8,-0.39,-1.13,-1.13,0,*58
1497733697.25,6317,15.31,73676.3,-0.39,-1.13,-1.13,0,*59
1497733698.46,6318,15.31,73682.0,-0.43,-1.17,-1.17,0,*5B
1497733699.72,6319,15.31,73676.3,-0.39,-1.13,-1.09,0,*5C
1497733700.97,6320,15.31,73674.8,-0.39,-1.13,-1.13,0,*5D
1497733702.23,6321,15.31,73680.0,-0.39,-1.13,-1.13,0,*5C
1497733703.48,6322,15.31,73676.3,-0.39,-1.13,-1.13,0,*5F
1497733704.74,6323,15.31,73678.0,-0.39,-1.13,-1.13,0,*5E
1497733705.99,6324,15.31,73680.5,-0.39,-1.09,-1.13,0,*52
1497733707.25,6325,15.31,73682.0,-0.39,-1.13,-1.13,0,*58
1497733708.5,6326,15.31,73680.3,-0.39,-1.13,-1.13,0,*5B
1497733709.75,6327,15.31,73674.0,-0.39,-1.09,-1.13,0,*51
1497733710.99,6328,15.31,73674.3,-0.43,-1.13,-1.17,0,*5C
1497733712.2,6329,15.31,73680.0,-0.37,-1.17,-1.13,0,*5E
1497733713.45,6330,15.31,73672.8,-0.39,-1.13,-1.13,0,*5C
1497733714.71,6331,15.31,73670.5,-0.39,-1.13,-1.13,0,*5D
1497733715.92,6332,15.31,73670.0,-0.43,-1.17,-1.17,0,*53
1497733717.16,6333,15.31,73670.5,-0.39,-1.13,-1.17,0,*5B
1497733718.41,6334,15.31,73672.3,-0.39,-1.13,-1.13,0,*58